Weather History for KRBG - May, 2013

Change the Weather History Date:

Saturday, May 4, 2013

  Actual Average Record
Temperature  
Mean Temperature 67 °F 56 °F  
Max Temperature 86 °F 67 °F 95 °F (1990)
Min Temperature 48 °F 45 °F 33 °F (1996)
Degree Days  
Heating Degree Days 0 9  
Month to date heating degree days 13 37  
Since 1 July heating degree days 3461 3801  
Cooling Degree Days 2 0  
Month to date cooling degree days 2 0  
Year to date cooling degree days 4 1  
Growing Degree Days 17 (Base 50)    
Moisture  
Dew Point 39 °F    
Average Humidity 49    
Maximum Humidity 86    
Minimum Humidity 11    
Precipitation  
Precipitation 0.00 in 0.09 in 0.68 in (2009)
Month to date precipitation 0.00 0.34  
Year to date precipitation 6.16 15.70  
Sea Level Pressure  
Sea Level Pressure 29.90 in    
Wind  
Wind Speed 7 mph (NNE)    
Max Wind Speed 25 mph    
Max Gust Speed 33 mph    
Visibility 10 miles    
Events      
T = Trace of Precipitation, MM = Missing Value Source: NWS Daily Summary

Daily Weather History Graph

Daily Weather History Graph

Search for Another Location

Airport or City:

Trip Planner

Search our weather history database for the weather conditions in past years. The results will help you decide how hot, cold, wet, or windy it might be!

Date:

Astronomy

May. 04, 2013 Rise Set
Actual Time 6:02 AM PDT 8:18 PM PDT
Civil Twilight 5:30 AM PDT 8:50 PM PDT
Nautical Twilight 4:51 AM PDT 9:29 PM PDT
Astronomical Twilight 4:08 AM PDT 10:13 PM PDT
Moon 3:12 AM PDT 3:14 PM PDT
Length of Visible Light 15h 19m
Length of Day
14h 16m
Waning Crescent, 26% of the Moon is Illuminated
May 4
Waning Crescent
May 9
New
May 17
First Quarter
May 24
Full
May 31
Last Quarter

Hourly Weather History & Observations

Time (PDT) Temp. Dew Point Humidity Pressure Visibility Wind Dir Wind Speed Gust Speed Precip Events Conditions
12:53 AM 55.9 °F 46.0 °F 69% 30.08 in 10.0 mi Calm Calm - N/A   Clear
1:53 AM 55.9 °F 46.0 °F 69% 30.06 in 10.0 mi Calm Calm - N/A   Clear
2:53 AM 54.0 °F 46.0 °F 75% 30.04 in 10.0 mi Calm Calm - N/A   Clear
3:53 AM 51.1 °F 45.0 °F 80% 30.05 in 10.0 mi Calm Calm - N/A   Clear
4:53 AM 50.0 °F 44.1 °F 80% 30.04 in 10.0 mi Calm Calm - N/A   Clear
5:53 AM 48.0 °F 44.1 °F 86% 30.04 in 10.0 mi Calm Calm - N/A   Clear
6:53 AM 48.9 °F 44.1 °F 83% 30.05 in 10.0 mi Calm Calm - N/A   Clear
7:53 AM 52.0 °F 46.0 °F 80% 30.04 in 10.0 mi Calm Calm - N/A   Clear
8:53 AM 59.0 °F 44.1 °F 58% 30.02 in 10.0 mi Calm Calm - N/A   Clear
9:53 AM 64.9 °F 44.1 °F 47% 29.99 in 10.0 mi North 4.6 mph - N/A   Clear
10:53 AM 69.1 °F 45.0 °F 42% 29.96 in 10.0 mi North 8.1 mph - N/A   Clear
11:53 AM 75.9 °F 44.1 °F 32% 29.91 in 10.0 mi North 12.7 mph - N/A   Clear
12:53 PM 80.1 °F 42.1 °F 26% 29.88 in 10.0 mi North 19.6 mph 27.6 mph N/A   Clear
1:53 PM 82.9 °F 39.9 °F 22% 29.83 in 10.0 mi NNW 10.4 mph - N/A   Clear
2:53 PM 84.0 °F 36.0 °F 18% 29.80 in 10.0 mi NNW 13.8 mph 25.3 mph N/A   Clear
3:53 PM 84.0 °F 39.0 °F 20% 29.77 in 10.0 mi North 19.6 mph 32.2 mph N/A   Clear
4:53 PM 86.0 °F 27.0 °F 12% 29.75 in 10.0 mi NE 16.1 mph 20.7 mph N/A   Clear
5:02 PM 86.0 °F 26.6 °F 12% 29.75 in 10.0 mi NE 12.7 mph 20.7 mph N/A   Clear
5:53 PM 84.9 °F 30.9 °F 14% 29.74 in 10.0 mi NE 10.4 mph - N/A   Clear
6:53 PM 82.9 °F 30.9 °F 15% 29.74 in 10.0 mi NE 12.7 mph - N/A   Clear
7:53 PM 80.1 °F 33.1 °F 18% 29.75 in 10.0 mi North 12.7 mph - N/A   Clear
8:53 PM 77.0 °F 32.0 °F 19% 29.76 in 10.0 mi NNE 12.7 mph - N/A   Clear
9:53 PM 73.0 °F 33.1 °F 23% 29.78 in 10.0 mi ENE 6.9 mph - N/A   Clear
10:53 PM 71.1 °F 33.1 °F 25% 29.78 in 10.0 mi NNE 4.6 mph - N/A   Clear
11:53 PM 72.0 °F 33.1 °F 24% 29.78 in 10.0 mi North 3.5 mph - N/A   Clear